Time,TemperatureF,DewpointF,PressureIn,WindDirection,WindDirectionDegrees,WindSpeedMPH,WindSpeedGustMPH,Humidity,HourlyPrecipIn,Conditions,Clouds,dailyrainin,SoftwareType,DateUTC
2013-05-24 00:03:00,40.1,34.7,30.31,NE,51,11.0,11.0,81,0.00,,,0.00,WeatherCatV1.01B143,2013-05-24 05:03:00,
2013-05-24 00:08:00,40.0,34.6,30.31,NNE,32,3.0,9.0,81,0.00,,,0.00,WeatherCatV1.01B143,2013-05-24 05:08:00,
2013-05-24 00:13:00,40.0,34.6,30.31,NE,41,3.0,10.0,81,0.00,,,0.00,WeatherCatV1.01B143,2013-05-24 05:13:00,
2013-05-24 00:18:00,40.0,34.6,30.31,NE,49,3.0,8.0,81,0.00,,,0.00,WeatherCatV1.01B143,2013-05-24 05:18:00,
2013-05-24 00:23:00,40.0,34.3,30.31,NNE,30,4.0,10.0,80,0.00,,,0.00,WeatherCatV1.01B143,2013-05-24 05:23:00,
2013-05-24 00:28:00,40.0,34.3,30.31,NE,36,0.0,3.0,80,0.00,,,0.00,WeatherCatV1.01B143,2013-05-24 05:28:00,
2013-05-24 00:33:00,40.0,34.3,30.31,NNE,32,5.0,5.0,80,0.00,,,0.00,WeatherCatV1.01B143,2013-05-24 05:33:00,
2013-05-24 00:38:00,40.0,34.3,30.31,NNE,23,2.0,9.0,80,0.00,,,0.00,WeatherCatV1.01B143,2013-05-24 05:38:00,
2013-05-24 00:43:00,39.9,34.2,30.31,NE,44,1.0,5.0,80,0.00,,,0.00,WeatherCatV1.01B143,2013-05-24 05:43:00,
2013-05-24 00:48:00,39.9,34.2,30.31,NE,43,2.0,9.0,80,0.00,,,0.00,WeatherCatV1.01B143,2013-05-24 05:48:00,
2013-05-24 00:53:00,39.9,34.2,30.31,ENE,75,3.0,6.0,80,0.00,,,0.00,WeatherCatV1.01B143,2013-05-24 05:53:00,
2013-05-24 00:58:00,39.9,34.2,30.31,SE,141,4.0,5.0,80,0.00,,,0.00,WeatherCatV1.01B143,2013-05-24 05:58:00,
2013-05-24 01:03:00,39.8,34.1,30.31,NE,44,1.0,7.0,80,0.00,,,0.00,WeatherCatV1.01B143,2013-05-24 06:03:00,
2013-05-24 01:08:00,39.8,34.5,30.31,NNE,33,5.0,8.0,81,0.00,,,0.00,WeatherCatV1.01B143,2013-05-24 06:08:00,
2013-05-24 01:13:00,39.8,34.5,30.31,NE,56,8.0,10.0,81,0.00,,,0.00,WeatherCatV1.01B143,2013-05-24 06:13:00,
2013-05-24 01:18:00,39.8,34.5,30.31,ENE,64,3.0,7.0,81,0.00,,,0.00,WeatherCatV1.01B143,2013-05-24 06:18:00,
2013-05-24 01:23:00,39.7,34.4,30.32,NE,43,4.0,7.0,81,0.00,,,0.00,WeatherCatV1.01B143,2013-05-24 06:23:00,
2013-05-24 01:28:00,39.7,34.4,30.32,NE,45,3.0,9.0,81,0.00,,,0.00,WeatherCatV1.01B143,2013-05-24 06:28:00,
2013-05-24 01:33:00,39.6,34.3,30.32,ENE,70,3.0,6.0,81,0.00,,,0.00,WeatherCatV1.01B143,2013-05-24 06:33:00,
2013-05-24 01:38:00,39.6,34.3,30.32,ENE,57,1.0,6.0,81,0.00,,,0.00,WeatherCatV1.01B143,2013-05-24 06:38:00,
2013-05-24 01:43:00,39.6,33.9,30.32,NNE,27,0.0,4.0,80,0.00,,,0.00,WeatherCatV1.01B143,2013-05-24 06:43:00,
2013-05-24 01:48:00,39.6,33.9,30.32,NE,43,6.0,10.0,80,0.00,,,0.00,WeatherCatV1.01B143,2013-05-24 06:48:00,
2013-05-24 01:53:00,39.7,34.0,30.32,NE,44,5.0,8.0,80,0.00,,,0.00,WeatherCatV1.01B143,2013-05-24 06:53:00,
2013-05-24 01:58:00,39.6,33.9,30.32,NE,50,0.0,6.0,80,0.00,,,0.00,WeatherCatV1.01B143,2013-05-24 06:58:00,
2013-05-24 02:03:00,39.6,33.9,30.32,NE,34,2.0,2.0,80,0.00,,,0.00,WeatherCatV1.01B143,2013-05-24 07:03:00,
2013-05-24 02:08:00,39.5,33.8,30.32,ENE,58,2.0,5.0,80,0.00,,,0.00,WeatherCatV1.01B143,2013-05-24 07:08:00,
2013-05-24 02:14:00,39.5,33.8,30.32,NNW,330,3.0,6.0,80,0.00,,,0.00,WeatherCatV1.01B143,2013-05-24 07:14:00,
2013-05-24 02:19:00,39.5,33.8,30.32,ENE,60,0.0,1.0,80,0.00,,,0.00,WeatherCatV1.01B143,2013-05-24 07:19:00,
2013-05-24 02:24:00,39.4,33.8,30.32,NNE,23,0.0,3.0,80,0.00,,,0.00,WeatherCatV1.01B143,2013-05-24 07:24:00,
2013-05-24 02:29:00,39.3,33.7,30.33,ENE,65,0.0,2.0,80,0.00,,,0.00,WeatherCatV1.01B143,2013-05-24 07:29:00,
2013-05-24 02:34:00,39.2,33.6,30.33,NE,44,3.0,4.0,80,0.00,,,0.00,WeatherCatV1.01B143,2013-05-24 07:34:00,
2013-05-24 02:39:00,39.2,33.6,30.33,ENE,65,0.0,2.0,80,0.00,,,0.00,WeatherCatV1.01B143,2013-05-24 07:39:00,
2013-05-24 02:44:00,39.3,33.7,30.33,NNE,26,0.0,2.0,80,0.00,,,0.00,WeatherCatV1.01B143,2013-05-24 07:44:00,
2013-05-24 02:49:00,39.2,33.6,30.32,NE,44,2.0,4.0,80,0.00,,,0.00,WeatherCatV1.01B143,2013-05-24 07:49:00,
2013-05-24 02:54:00,39.1,33.5,30.33,NE,51,1.0,4.0,80,0.00,,,0.00,WeatherCatV1.01B143,2013-05-24 07:54:00,
2013-05-24 02:59:00,39.1,33.5,30.33,NE,53,4.0,6.0,80,0.00,,,0.00,WeatherCatV1.01B143,2013-05-24 07:59:00,
2013-05-24 03:04:00,39.1,33.5,30.32,NNE,25,2.0,4.0,80,0.00,,,0.00,WeatherCatV1.01B143,2013-05-24 08:04:00,
2013-05-24 03:09:00,39.2,33.2,30.32,NE,49,3.0,5.0,79,0.00,,,0.00,WeatherCatV1.01B143,2013-05-24 08:09:00,
2013-05-24 03:14:00,39.3,33.3,30.33,NNE,26,0.0,7.0,79,0.00,,,0.00,WeatherCatV1.01B143,2013-05-24 08:14:00,
2013-05-24 03:19:00,39.2,33.2,30.33,NNE,18,2.0,4.0,79,0.00,,,0.00,WeatherCatV1.01B143,2013-05-24 08:19:00,
2013-05-24 03:24:00,39.2,33.2,30.33,NE,41,0.0,3.0,79,0.00,,,0.00,WeatherCatV1.01B143,2013-05-24 08:24:00,
2013-05-24 03:29:00,39.1,33.1,30.33,NE,37,1.0,3.0,79,0.00,,,0.00,WeatherCatV1.01B143,2013-05-24 08:29:00,
2013-05-24 03:34:00,39.1,33.1,30.33,NE,39,1.0,3.0,79,0.00,,,0.00,WeatherCatV1.01B143,2013-05-24 08:34:00,
2013-05-24 03:39:00,39.1,33.1,30.34,NNE,22,0.0,1.0,79,0.00,,,0.00,WeatherCatV1.01B143,2013-05-24 08:39:00,
2013-05-24 03:44:00,38.9,33.0,30.34,NE,53,0.0,0.0,79,0.00,,,0.00,WeatherCatV1.01B143,2013-05-24 08:44:00,
2013-05-24 03:49:00,38.5,32.9,30.34,NE,53,0.0,0.0,80,0.00,,,0.00,WeatherCatV1.01B143,2013-05-24 08:49:00,
2013-05-24 03:54:00,38.2,32.6,30.34,NE,52,0.0,0.0,80,0.00,,,0.00,WeatherCatV1.01B143,2013-05-24 08:54:00,
2013-05-24 03:59:00,37.9,32.6,30.34,NE,53,0.0,0.0,81,0.00,,,0.00,WeatherCatV1.01B143,2013-05-24 08:59:00,
2013-05-24 04:04:00,37.6,32.6,30.34,NE,53,0.0,0.0,82,0.00,,,0.00,WeatherCatV1.01B143,2013-05-24 09:04:00,
2013-05-24 04:09:00,37.3,32.6,30.34,NE,53,0.0,0.0,83,0.00,,,0.00,WeatherCatV1.01B143,2013-05-24 09:09:00,
2013-05-24 04:14:00,37.0,32.6,30.34,NE,53,0.0,0.0,84,0.00,,,0.00,WeatherCatV1.01B143,2013-05-24 09:14:00,
2013-05-24 04:19:00,36.8,32.7,30.35,NE,53,0.0,0.0,85,0.00,,,0.00,WeatherCatV1.01B143,2013-05-24 09:19:00,
2013-05-24 04:24:00,36.6,32.8,30.35,NE,53,0.0,0.0,86,0.00,,,0.00,WeatherCatV1.01B143,2013-05-24 09:24:00,
2013-05-24 04:29:00,36.4,32.6,30.35,NE,47,0.0,1.0,86,0.00,,,0.00,WeatherCatV1.01B143,2013-05-24 09:29:00,
2013-05-24 04:34:00,36.4,32.6,30.35,NE,39,0.0,1.0,86,0.00,,,0.00,WeatherCatV1.01B143,2013-05-24 09:34:00,
2013-05-24 04:39:00,36.4,32.6,30.35,NNE,30,0.0,1.0,86,0.00,,,0.00,WeatherCatV1.01B143,2013-05-24 09:39:00,
2013-05-24 04:44:00,36.5,32.7,30.36,NE,47,0.0,0.0,86,0.00,,,0.00,WeatherCatV1.01B143,2013-05-24 09:44:00,
2013-05-24 04:49:00,36.3,32.5,30.36,NE,47,0.0,1.0,86,0.00,,,0.00,WeatherCatV1.01B143,2013-05-24 09:49:00,
2013-05-24 04:54:00,36.1,32.6,30.36,NE,46,0.0,0.0,87,0.00,,,0.00,WeatherCatV1.01B143,2013-05-24 09:54:00,
2013-05-24 04:59:00,35.9,32.4,30.36,NE,41,0.0,0.0,87,0.00,,,0.00,WeatherCatV1.01B143,2013-05-24 09:59:00,
2013-05-24 05:04:00,35.9,32.4,30.36,NE,41,0.0,1.0,87,0.00,,,0.00,WeatherCatV1.01B143,2013-05-24 10:04:00,
2013-05-24 05:09:00,36.0,32.5,30.36,ENE,57,0.0,1.0,87,0.00,,,0.00,WeatherCatV1.01B143,2013-05-24 10:09:00,
2013-05-24 05:14:00,36.2,32.4,30.36,NE,41,0.0,0.0,86,0.00,,,0.00,WeatherCatV1.01B143,2013-05-24 10:14:00,
2013-05-24 05:19:00,36.1,32.3,30.36,NE,41,0.0,0.0,86,0.00,,,0.00,WeatherCatV1.01B143,2013-05-24 10:19:00,
2013-05-24 05:24:00,35.8,32.3,30.36,NE,40,0.0,1.0,87,0.00,,,0.00,WeatherCatV1.01B143,2013-05-24 10:24:00,
2013-05-24 05:29:00,35.5,32.0,30.36,NE,50,0.0,1.0,87,0.00,,,0.00,WeatherCatV1.01B143,2013-05-24 10:29:00,
2013-05-24 05:34:00,35.5,32.0,30.36,NE,47,0.0,0.0,87,0.00,,,0.00,WeatherCatV1.01B143,2013-05-24 10:34:00,
2013-05-24 05:39:00,35.4,31.9,30.36,NE,47,0.0,0.0,87,0.00,,,0.00,WeatherCatV1.01B143,2013-05-24 10:39:00,
2013-05-24 05:44:00,35.3,31.8,30.36,NE,47,0.0,0.0,87,0.00,,,0.00,WeatherCatV1.01B143,2013-05-24 10:44:00,
2013-05-24 05:49:00,35.3,31.8,30.37,NE,47,0.0,0.0,87,0.00,,,0.00,WeatherCatV1.01B143,2013-05-24 10:49:00,
2013-05-24 05:54:00,35.3,32.1,30.37,NE,47,0.0,0.0,88,0.00,,,0.00,WeatherCatV1.01B143,2013-05-24 10:54:00,
2013-05-24 05:59:00,35.4,32.2,30.37,NE,44,0.0,1.0,88,0.00,,,0.00,WeatherCatV1.01B143,2013-05-24 10:59:00,
2013-05-24 06:04:00,35.8,32.6,30.37,NE,40,0.0,2.0,88,0.00,,,0.00,WeatherCatV1.01B143,2013-05-24 11:04:00,
2013-05-24 06:09:00,36.2,32.7,30.37,ENE,60,0.0,2.0,87,0.00,,,0.00,WeatherCatV1.01B143,2013-05-24 11:09:00,
2013-05-24 06:14:00,36.5,33.0,30.37,NNE,24,0.0,1.0,87,0.00,,,0.00,WeatherCatV1.01B143,2013-05-24 11:14:00,
2013-05-24 06:19:00,36.9,33.1,30.37,NNE,20,0.0,3.0,86,0.00,,,0.00,WeatherCatV1.01B143,2013-05-24 11:19:00,
2013-05-24 06:24:00,37.1,33.3,30.37,NE,36,1.0,4.0,86,0.00,,,0.00,WeatherCatV1.01B143,2013-05-24 11:24:00,
2013-05-24 06:29:00,37.3,33.5,30.37,NNE,29,0.0,1.0,86,0.00,,,0.00,WeatherCatV1.01B143,2013-05-24 11:29:00,
2013-05-24 06:34:00,37.9,33.8,30.38,NE,41,0.0,4.0,85,0.00,,,0.00,WeatherCatV1.01B143,2013-05-24 11:34:00,
2013-05-24 06:39:00,38.3,33.9,30.38,NE,39,2.0,2.0,84,0.00,,,0.00,WeatherCatV1.01B143,2013-05-24 11:39:00,
2013-05-24 06:44:00,38.6,33.9,30.38,NNE,18,0.0,5.0,83,0.00,,,0.00,WeatherCatV1.01B143,2013-05-24 11:44:00,
2013-05-24 06:49:00,38.9,33.9,30.39,NNE,13,1.0,3.0,82,0.00,,,0.00,WeatherCatV1.01B143,2013-05-24 11:49:00,
2013-05-24 06:54:00,39.3,34.3,30.39,NE,39,0.0,3.0,82,0.00,,,0.00,WeatherCatV1.01B143,2013-05-24 11:54:00,
2013-05-24 06:59:00,39.6,34.6,30.39,North,11,0.0,1.0,82,0.00,,,0.00,WeatherCatV1.01B143,2013-05-24 11:59:00,
2013-05-24 07:04:00,40.0,35.0,30.39,ENE,58,2.0,2.0,82,0.00,,,0.00,WeatherCatV1.01B143,2013-05-24 12:04:00,
2013-05-24 07:09:00,40.3,34.9,30.40,NE,37,0.0,1.0,81,0.00,,,0.00,WeatherCatV1.01B143,2013-05-24 12:09:00,
2013-05-24 07:14:00,40.8,35.1,30.40,NNE,18,2.0,6.0,80,0.00,,,0.00,WeatherCatV1.01B143,2013-05-24 12:14:00,
2013-05-24 07:19:00,41.2,35.2,30.40,NNW,339,0.0,1.0,79,0.00,,,0.00,WeatherCatV1.01B143,2013-05-24 12:19:00,
2013-05-24 07:24:00,41.5,35.2,30.41,North,10,2.0,3.0,78,0.00,,,0.00,WeatherCatV1.01B143,2013-05-24 12:24:00,
2013-05-24 07:29:00,41.9,35.5,30.40,NE,41,3.0,4.0,78,0.00,,,0.00,WeatherCatV1.01B143,2013-05-24 12:29:00,
2013-05-24 07:34:00,42.4,35.7,30.41,NNW,332,1.0,2.0,77,0.00,,,0.00,WeatherCatV1.01B143,2013-05-24 12:34:00,
2013-05-24 07:39:00,42.6,35.2,30.41,North,351,2.0,5.0,75,0.00,,,0.00,WeatherCatV1.01B143,2013-05-24 12:39:00,
2013-05-24 07:44:00,42.8,35.4,30.41,NE,34,3.0,5.0,75,0.00,,,0.00,WeatherCatV1.01B143,2013-05-24 12:44:00,
2013-05-24 07:49:00,43.0,35.3,30.42,NNE,32,3.0,7.0,74,0.00,,,0.00,WeatherCatV1.01B143,2013-05-24 12:49:00,
2013-05-24 07:54:00,43.3,35.9,30.42,North,5,2.0,5.0,75,0.00,,,0.00,WeatherCatV1.01B143,2013-05-24 12:54:00,
2013-05-24 07:59:00,43.6,35.9,30.42,North,358,1.0,4.0,74,0.00,,,0.00,WeatherCatV1.01B143,2013-05-24 12:59:00,
2013-05-24 08:04:00,43.8,35.4,30.43,NE,34,4.0,5.0,72,0.00,,,0.00,WeatherCatV1.01B143,2013-05-24 13:04:00,
2013-05-24 08:09:00,44.1,35.7,30.43,ENE,60,2.0,5.0,72,0.00,,,0.00,WeatherCatV1.01B143,2013-05-24 13:09:00,
2013-05-24 08:14:00,44.4,35.6,30.44,NE,37,0.0,2.0,71,0.00,,,0.00,WeatherCatV1.01B143,2013-05-24 13:14:00,
2013-05-24 08:19:00,44.7,35.9,30.44,NE,46,1.0,3.0,71,0.00,,,0.00,WeatherCatV1.01B143,2013-05-24 13:19:00,
2013-05-24 08:24:00,45.0,35.8,30.44,NE,37,1.0,5.0,70,0.00,,,0.00,WeatherCatV1.01B143,2013-05-24 13:24:00,
2013-05-24 08:29:00,45.4,35.8,30.44,NE,37,1.0,4.0,69,0.00,,,0.00,WeatherCatV1.01B143,2013-05-24 13:29:00,
2013-05-24 08:34:00,45.7,36.1,30.44,NNE,14,2.0,3.0,69,0.00,,,0.00,WeatherCatV1.01B143,2013-05-24 13:34:00,
2013-05-24 08:39:00,46.0,34.9,30.44,NE,34,1.0,3.0,65,0.00,,,0.00,WeatherCatV1.01B143,2013-05-24 13:39:00,
2013-05-24 08:44:00,46.5,36.1,30.44,NNE,22,0.0,3.0,67,0.00,,,0.00,WeatherCatV1.01B143,2013-05-24 13:44:00,
2013-05-24 08:49:00,46.9,36.5,30.44,ENE,68,2.0,5.0,67,0.00,,,0.00,WeatherCatV1.01B143,2013-05-24 13:49:00,
2013-05-24 08:54:00,47.2,36.4,30.44,NNE,20,5.0,6.0,66,0.00,,,0.00,WeatherCatV1.01B143,2013-05-24 13:54:00,
2013-05-24 08:59:00,47.4,35.0,30.44,NE,43,0.0,2.0,62,0.00,,,0.00,WeatherCatV1.01B143,2013-05-24 13:59:00,
2013-05-24 09:04:00,48.0,34.8,30.45,NE,37,1.0,4.0,60,0.00,,,0.00,WeatherCatV1.01B143,2013-05-24 14:04:00,
2013-05-24 09:09:00,48.1,35.3,30.45,NE,41,2.0,3.0,61,0.00,,,0.00,WeatherCatV1.01B143,2013-05-24 14:09:00,
2013-05-24 09:14:00,48.2,34.6,30.45,North,11,0.0,3.0,59,0.00,,,0.00,WeatherCatV1.01B143,2013-05-24 14:14:00,
2013-05-24 09:19:00,48.1,34.9,30.45,North,354,0.0,1.0,60,0.00,,,0.00,WeatherCatV1.01B143,2013-05-24 14:19:00,
2013-05-24 09:24:00,48.5,34.0,30.44,NNE,27,1.0,8.0,57,0.00,,,0.00,WeatherCatV1.01B143,2013-05-24 14:24:00,
2013-05-24 09:29:00,48.7,35.0,30.45,North,6,1.0,7.0,59,0.00,,,0.00,WeatherCatV1.01B143,2013-05-24 14:29:00,
2013-05-24 09:34:00,48.8,35.5,30.45,NE,51,0.0,6.0,60,0.00,,,0.00,WeatherCatV1.01B143,2013-05-24 14:34:00,
2013-05-24 09:39:00,49.1,34.5,30.44,NE,53,0.0,3.0,57,0.00,,,0.00,WeatherCatV1.01B143,2013-05-24 14:39:00,
2013-05-24 09:44:00,49.3,35.2,30.44,NNE,32,0.0,4.0,58,0.00,,,0.00,WeatherCatV1.01B143,2013-05-24 14:44:00,
2013-05-24 09:49:00,49.9,35.3,30.45,NNE,12,0.0,2.0,57,0.00,,,0.00,WeatherCatV1.01B143,2013-05-24 14:49:00,
2013-05-24 09:54:00,50.5,34.9,30.44,ENE,66,1.0,3.0,55,0.00,,,0.00,WeatherCatV1.01B143,2013-05-24 14:54:00,
2013-05-24 09:59:00,50.7,35.1,30.44,NE,45,0.0,6.0,55,0.00,,,0.00,WeatherCatV1.01B143,2013-05-24 14:59:00,
2013-05-24 10:04:00,50.9,35.3,30.44,NNE,29,4.0,9.0,55,0.00,,,0.00,WeatherCatV1.01B143,2013-05-24 15:04:00,
2013-05-24 10:09:00,51.0,36.3,30.43,NE,39,1.0,5.0,57,0.00,,,0.00,WeatherCatV1.01B143,2013-05-24 15:09:00,
2013-05-24 10:14:00,51.4,36.2,30.43,NNE,23,1.0,7.0,56,0.00,,,0.00,WeatherCatV1.01B143,2013-05-24 15:14:00,
2013-05-24 10:19:00,51.6,35.0,30.43,North,0,1.0,5.0,53,0.00,,,0.00,WeatherCatV1.01B143,2013-05-24 15:19:00,
2013-05-24 10:24:00,52.1,36.0,30.43,NNE,27,2.0,4.0,54,0.00,,,0.00,WeatherCatV1.01B143,2013-05-24 15:24:00,
2013-05-24 10:29:00,52.3,36.6,30.43,NNW,347,1.0,3.0,55,0.00,,,0.00,WeatherCatV1.01B143,2013-05-24 15:29:00,
2013-05-24 10:34:00,52.4,36.2,30.43,NNE,23,1.0,6.0,54,0.00,,,0.00,WeatherCatV1.01B143,2013-05-24 15:34:00,
2013-05-24 10:39:00,52.5,35.9,30.43,NE,39,0.0,4.0,53,0.00,,,0.00,WeatherCatV1.01B143,2013-05-24 15:39:00,
2013-05-24 10:44:00,52.6,35.0,30.43,NE,44,1.0,5.0,51,0.00,,,0.00,WeatherCatV1.01B143,2013-05-24 15:44:00,
2013-05-24 10:49:00,52.6,35.5,30.43,NNW,332,0.0,4.0,52,0.00,,,0.00,WeatherCatV1.01B143,2013-05-24 15:49:00,
2013-05-24 10:54:00,53.6,37.8,30.44,ENE,70,7.0,7.0,55,0.00,,,0.00,WeatherCatV1.01B143,2013-05-24 15:54:00,
2013-05-24 10:59:00,53.8,36.1,30.44,NE,35,2.0,6.0,51,0.00,,,0.00,WeatherCatV1.01B143,2013-05-24 15:59:00,
2013-05-24 11:04:00,53.7,36.0,30.44,NNE,13,0.0,6.0,51,0.00,,,0.00,WeatherCatV1.01B143,2013-05-24 16:04:00,
2013-05-24 11:09:00,54.2,37.0,30.44,NNE,33,2.0,3.0,52,0.00,,,0.00,WeatherCatV1.01B143,2013-05-24 16:09:00,
2013-05-24 11:14:00,54.5,36.2,30.44,NNE,33,0.0,3.0,50,0.00,,,0.00,WeatherCatV1.01B143,2013-05-24 16:14:00,
2013-05-24 11:19:00,54.3,36.1,30.44,NNE,16,0.0,1.0,50,0.00,,,0.00,WeatherCatV1.01B143,2013-05-24 16:19:00,
2013-05-24 11:24:00,54.6,35.8,30.44,NE,34,1.0,4.0,49,0.00,,,0.00,WeatherCatV1.01B143,2013-05-24 16:24:00,
2013-05-24 11:29:00,55.0,36.2,30.43,NE,47,0.0,3.0,49,0.00,,,0.00,WeatherCatV1.01B143,2013-05-24 16:29:00,
2013-05-24 11:34:00,55.5,37.7,30.43,NNE,13,2.0,4.0,51,0.00,,,0.00,WeatherCatV1.01B143,2013-05-24 16:34:00,
2013-05-24 11:39:00,55.9,37.5,30.43,North,5,2.0,5.0,50,0.00,,,0.00,WeatherCatV1.01B143,2013-05-24 16:39:00,
2013-05-24 11:44:00,55.8,36.9,30.43,NE,41,7.0,8.0,49,0.00,,,0.00,WeatherCatV1.01B143,2013-05-24 16:44:00,
2013-05-24 11:49:00,55.6,36.7,30.43,NE,51,1.0,6.0,49,0.00,,,0.00,WeatherCatV1.01B143,2013-05-24 16:49:00,
2013-05-24 11:54:00,55.7,36.8,30.43,NNE,27,2.0,8.0,49,0.00,,,0.00,WeatherCatV1.01B143,2013-05-24 16:54:00,
2013-05-24 11:59:00,55.9,37.0,30.43,North,357,1.0,4.0,49,0.00,,,0.00,WeatherCatV1.01B143,2013-05-24 16:59:00,
2013-05-24 12:04:00,56.1,37.7,30.43,NE,39,2.0,8.0,50,0.00,,,0.00,WeatherCatV1.01B143,2013-05-24 17:04:00,
2013-05-24 12:09:00,56.5,37.6,30.42,NE,34,2.0,4.0,49,0.00,,,0.00,WeatherCatV1.01B143,2013-05-24 17:09:00,
2013-05-24 12:14:00,57.1,37.1,30.42,East,81,5.0,7.0,47,0.00,,,0.00,WeatherCatV1.01B143,2013-05-24 17:14:00,
2013-05-24 12:19:00,57.3,37.2,30.43,NNE,23,0.0,1.0,47,0.00,,,0.00,WeatherCatV1.01B143,2013-05-24 17:19:00,
2013-05-24 12:24:00,57.4,37.9,30.43,North,359,3.0,4.0,48,0.00,,,0.00,WeatherCatV1.01B143,2013-05-24 17:24:00,
2013-05-24 12:29:00,57.4,36.8,30.43,NNE,29,2.0,8.0,46,0.00,,,0.00,WeatherCatV1.01B143,2013-05-24 17:29:00,
2013-05-24 12:34:00,57.3,36.7,30.43,NNE,23,0.0,7.0,46,0.00,,,0.00,WeatherCatV1.01B143,2013-05-24 17:34:00,
2013-05-24 12:39:00,57.4,36.2,30.43,ENE,64,2.0,7.0,45,0.00,,,0.00,WeatherCatV1.01B143,2013-05-24 17:39:00,
2013-05-24 12:44:00,57.9,38.3,30.43,NNE,29,0.0,2.0,48,0.00,,,0.00,WeatherCatV1.01B143,2013-05-24 17:44:00,
2013-05-24 12:49:00,58.5,37.8,30.42,NE,48,0.0,1.0,46,0.00,,,0.00,WeatherCatV1.01B143,2013-05-24 17:49:00,
2013-05-24 12:54:00,58.8,37.5,30.42,NE,43,2.0,4.0,45,0.00,,,0.00,WeatherCatV1.01B143,2013-05-24 17:54:00,
2013-05-24 12:59:00,58.9,37.6,30.42,NNE,16,0.0,4.0,45,0.00,,,0.00,WeatherCatV1.01B143,2013-05-24 17:59:00,
2013-05-24 13:04:00,58.9,37.0,30.42,NNE,13,0.0,1.0,44,0.00,,,0.00,WeatherCatV1.01B143,2013-05-24 18:04:00,
2013-05-24 13:09:00,59.2,36.7,30.42,NNE,26,1.0,7.0,43,0.00,,,0.00,WeatherCatV1.01B143,2013-05-24 18:09:00,
2013-05-24 13:14:00,59.3,38.0,30.42,NNW,332,1.0,2.0,45,0.00,,,0.00,WeatherCatV1.01B143,2013-05-24 18:14:00,
2013-05-24 13:19:00,60.1,37.5,30.42,NNE,30,0.0,2.0,43,0.00,,,0.00,WeatherCatV1.01B143,2013-05-24 18:19:00,
2013-05-24 13:24:00,60.1,38.1,30.41,NE,44,4.0,6.0,44,0.00,,,0.00,WeatherCatV1.01B143,2013-05-24 18:24:00,
2013-05-24 13:29:00,59.6,36.5,30.41,NE,56,2.0,6.0,42,0.00,,,0.00,WeatherCatV1.01B143,2013-05-24 18:29:00,
2013-05-24 13:34:00,59.7,36.6,30.42,NNE,18,3.0,5.0,42,0.00,,,0.00,WeatherCatV1.01B143,2013-05-24 18:34:00,
2013-05-24 13:39:00,59.8,36.1,30.41,NE,39,1.0,5.0,41,0.00,,,0.00,WeatherCatV1.01B143,2013-05-24 18:39:00,
2013-05-24 13:44:00,60.3,35.2,30.41,NNE,20,5.0,7.0,39,0.00,,,0.00,WeatherCatV1.01B143,2013-05-24 18:44:00,
2013-05-24 13:49:00,59.9,35.5,30.41,NE,54,6.0,8.0,40,0.00,,,0.00,WeatherCatV1.01B143,2013-05-24 18:49:00,
2013-05-24 13:54:00,60.1,36.9,30.41,North,9,1.0,5.0,42,0.00,,,0.00,WeatherCatV1.01B143,2013-05-24 18:54:00,
2013-05-24 13:59:00,60.4,37.2,30.40,NNE,25,0.0,6.0,42,0.00,,,0.00,WeatherCatV1.01B143,2013-05-24 18:59:00,
2013-05-24 14:04:00,61.2,36.7,30.40,NNE,32,2.0,6.0,40,0.00,,,0.00,WeatherCatV1.01B143,2013-05-24 19:04:00,
2013-05-24 14:09:00,61.2,36.7,30.40,NNE,20,2.0,6.0,40,0.00,,,0.00,WeatherCatV1.01B143,2013-05-24 19:09:00,
2013-05-24 14:14:00,61.4,37.5,30.40,ENE,57,3.0,5.0,41,0.00,,,0.00,WeatherCatV1.01B143,2013-05-24 19:14:00,
2013-05-24 14:19:00,61.4,38.7,30.40,North,11,1.0,3.0,43,0.00,,,0.00,WeatherCatV1.01B143,2013-05-24 19:19:00,
2013-05-24 14:24:00,61.0,38.3,30.40,North,357,1.0,2.0,43,0.00,,,0.00,WeatherCatV1.01B143,2013-05-24 19:24:00,
2013-05-24 14:29:00,60.9,37.0,30.40,NE,56,0.0,3.0,41,0.00,,,0.00,WeatherCatV1.01B143,2013-05-24 19:29:00,
2013-05-24 14:34:00,61.3,36.8,30.39,NNE,26,2.0,6.0,40,0.00,,,0.00,WeatherCatV1.01B143,2013-05-24 19:34:00,
2013-05-24 14:39:00,62.0,36.1,30.39,NE,34,1.0,4.0,38,0.00,,,0.00,WeatherCatV1.01B143,2013-05-24 19:39:00,
2013-05-24 14:44:00,62.3,38.3,30.39,NE,53,1.0,2.0,41,0.00,,,0.00,WeatherCatV1.01B143,2013-05-24 19:44:00,
2013-05-24 14:49:00,62.8,36.8,30.38,NE,54,0.0,6.0,38,0.00,,,0.00,WeatherCatV1.01B143,2013-05-24 19:49:00,
2013-05-24 14:54:00,63.1,37.1,30.38,WSW,239,0.0,1.0,38,0.00,,,0.00,WeatherCatV1.01B143,2013-05-24 19:54:00,
2013-05-24 14:59:00,63.6,36.8,30.38,North,357,1.0,5.0,37,0.00,,,0.00,WeatherCatV1.01B143,2013-05-24 19:59:00,
2013-05-24 15:04:00,63.0,37.0,30.38,East,99,2.0,4.0,38,0.00,,,0.00,WeatherCatV1.01B143,2013-05-24 20:04:00,
2013-05-24 15:09:00,63.3,38.6,30.38,NE,49,2.0,3.0,40,0.00,,,0.00,WeatherCatV1.01B143,2013-05-24 20:09:00,
2013-05-24 15:14:00,64.0,40.4,30.38,NNE,22,0.0,3.0,42,0.00,,,0.00,WeatherCatV1.01B143,2013-05-24 20:14:00,
2013-05-24 15:19:00,64.7,41.1,30.38,West,260,0.0,1.0,42,0.00,,,0.00,WeatherCatV1.01B143,2013-05-24 20:19:00,
2013-05-24 15:24:00,66.0,41.6,30.37,NE,43,2.0,2.0,41,0.00,,,0.00,WeatherCatV1.01B143,2013-05-24 20:24:00,
2013-05-24 15:29:00,65.2,37.6,30.37,NNE,22,2.0,3.0,36,0.00,,,0.00,WeatherCatV1.01B143,2013-05-24 20:29:00,
2013-05-24 15:34:00,64.5,39.0,30.37,NE,35,1.0,3.0,39,0.00,,,0.00,WeatherCatV1.01B143,2013-05-24 20:34:00,
2013-05-24 15:39:00,65.0,39.4,30.36,NE,36,1.0,3.0,39,0.00,,,0.00,WeatherCatV1.01B143,2013-05-24 20:39:00,
2013-05-24 15:44:00,65.8,40.1,30.36,NNE,19,0.0,3.0,39,0.00,,,0.00,WeatherCatV1.01B143,2013-05-24 20:44:00,
2013-05-24 15:49:00,66.6,41.5,30.36,NNE,13,0.0,2.0,40,0.00,,,0.00,WeatherCatV1.01B143,2013-05-24 20:49:00,
2013-05-24 15:54:00,67.3,44.6,30.36,NNE,29,0.0,0.0,44,0.00,,,0.00,WeatherCatV1.01B143,2013-05-24 20:54:00,
2013-05-24 15:59:00,68.2,42.3,30.36,North,349,0.0,2.0,39,0.00,,,0.00,WeatherCatV1.01B143,2013-05-24 20:59:00,
2013-05-24 16:04:00,68.3,38.8,30.36,NE,44,2.0,4.0,34,0.00,,,0.00,WeatherCatV1.01B143,2013-05-24 21:04:00,
2013-05-24 16:09:00,67.6,43.7,30.36,NNE,29,3.0,4.0,42,0.00,,,0.00,WeatherCatV1.01B143,2013-05-24 21:09:00,
2013-05-24 16:14:00,66.7,40.3,30.35,NNE,22,0.0,0.0,38,0.00,,,0.00,WeatherCatV1.01B143,2013-05-24 21:14:00,
2013-05-24 16:19:00,67.4,40.9,30.35,NNE,16,0.0,1.0,38,0.00,,,0.00,WeatherCatV1.01B143,2013-05-24 21:19:00,
2013-05-24 16:24:00,68.3,44.3,30.34,NNW,347,0.0,1.0,42,0.00,,,0.00,WeatherCatV1.01B143,2013-05-24 21:24:00,
2013-05-24 16:29:00,68.5,40.5,30.34,East,84,0.0,4.0,36,0.00,,,0.00,WeatherCatV1.01B143,2013-05-24 21:29:00,
2013-05-24 16:34:00,68.6,44.6,30.34,SW,224,0.0,1.0,42,0.00,,,0.00,WeatherCatV1.01B143,2013-05-24 21:34:00,
2013-05-24 16:39:00,69.0,44.3,30.34,SE,129,0.0,0.0,41,0.00,,,0.00,WeatherCatV1.01B143,2013-05-24 21:39:00,
2013-05-24 16:44:00,69.1,42.4,30.34,North,357,0.0,1.0,38,0.00,,,0.00,WeatherCatV1.01B143,2013-05-24 21:44:00,
2013-05-24 16:49:00,68.9,42.2,30.34,WNW,285,0.0,0.0,38,0.00,,,0.00,WeatherCatV1.01B143,2013-05-24 21:49:00,
2013-05-24 16:54:00,69.2,42.5,30.33,NW,326,0.0,1.0,38,0.00,,,0.00,WeatherCatV1.01B143,2013-05-24 21:54:00,
2013-05-24 16:59:00,68.4,39.7,30.34,WSW,248,0.0,3.0,35,0.00,,,0.00,WeatherCatV1.01B143,2013-05-24 21:59:00,
2013-05-24 17:04:00,67.6,39.0,30.34,NNE,30,0.0,1.0,35,0.00,,,0.00,WeatherCatV1.01B143,2013-05-24 22:04:00,
2013-05-24 17:09:00,67.6,41.1,30.33,NE,42,0.0,2.0,38,0.00,,,0.00,WeatherCatV1.01B143,2013-05-24 22:09:00,
2013-05-24 17:14:00,67.5,37.4,30.34,NE,46,1.0,2.0,33,0.00,,,0.00,WeatherCatV1.01B143,2013-05-24 22:14:00,
2013-05-24 17:19:00,67.6,43.1,30.34,WNW,283,0.0,1.0,41,0.00,,,0.00,WeatherCatV1.01B143,2013-05-24 22:19:00,
2013-05-24 17:24:00,67.9,42.0,30.34,SW,215,0.0,0.0,39,0.00,,,0.00,WeatherCatV1.01B143,2013-05-24 22:24:00,
2013-05-24 17:29:00,68.2,40.9,30.34,NNE,15,0.0,0.0,37,0.00,,,0.00,WeatherCatV1.01B143,2013-05-24 22:29:00,
2013-05-24 17:34:00,68.1,38.7,30.34,North,349,0.0,1.0,34,0.00,,,0.00,WeatherCatV1.01B143,2013-05-24 22:34:00,
2013-05-24 17:39:00,66.8,39.7,30.34,West,269,0.0,0.0,37,0.00,,,0.00,WeatherCatV1.01B143,2013-05-24 22:39:00,
2013-05-24 17:44:00,67.2,39.3,30.34,West,279,0.0,1.0,36,0.00,,,0.00,WeatherCatV1.01B143,2013-05-24 22:44:00,
2013-05-24 17:49:00,67.3,36.4,30.33,North,359,0.0,2.0,32,0.00,,,0.00,WeatherCatV1.01B143,2013-05-24 22:49:00,
2013-05-24 17:54:00,66.9,37.6,30.34,WNW,285,0.0,0.0,34,0.00,,,0.00,WeatherCatV1.01B143,2013-05-24 22:54:00,
2013-05-24 17:59:00,66.6,37.3,30.34,West,276,0.0,0.0,34,0.00,,,0.00,WeatherCatV1.01B143,2013-05-24 22:59:00,
2013-05-24 18:04:00,66.0,34.5,30.34,SSW,201,0.0,1.0,31,0.00,,,0.00,WeatherCatV1.01B143,2013-05-24 23:04:00,
2013-05-24 18:09:00,65.2,38.3,30.33,South,183,0.0,0.0,37,0.00,,,0.00,WeatherCatV1.01B143,2013-05-24 23:09:00,
2013-05-24 18:14:00,64.7,34.9,30.33,NW,305,0.0,0.0,33,0.00,,,0.00,WeatherCatV1.01B143,2013-05-24 23:14:00,
2013-05-24 18:19:00,63.9,34.2,30.33,NNE,19,0.0,3.0,33,0.00,,,0.00,WeatherCatV1.01B143,2013-05-24 23:19:00,
2013-05-24 18:24:00,62.4,35.8,30.33,SE,142,0.0,1.0,37,0.00,,,0.00,WeatherCatV1.01B143,2013-05-24 23:24:00,
2013-05-24 18:29:00,62.2,37.6,30.33,West,267,0.0,0.0,40,0.00,,,0.00,WeatherCatV1.01B143,2013-05-24 23:29:00,
2013-05-24 18:34:00,62.4,38.4,30.33,NW,322,0.0,0.0,41,0.00,,,0.00,WeatherCatV1.01B143,2013-05-24 23:34:00,
2013-05-24 18:39:00,62.2,35.6,30.33,NNW,341,0.0,1.0,37,0.00,,,0.00,WeatherCatV1.01B143,2013-05-24 23:39:00,
2013-05-24 18:44:00,61.8,37.8,30.34,SSW,194,0.0,0.0,41,0.00,,,0.00,WeatherCatV1.01B143,2013-05-24 23:44:00,
2013-05-24 18:49:00,61.5,35.7,30.34,ENE,60,1.0,3.0,38,0.00,,,0.00,WeatherCatV1.01B143,2013-05-24 23:49:00,
2013-05-24 18:54:00,60.7,35.6,30.34,North,0,0.0,1.0,39,0.00,,,0.00,WeatherCatV1.01B143,2013-05-24 23:54:00,
2013-05-24 18:59:00,59.7,36.0,30.34,NW,321,0.0,0.0,41,0.00,,,0.00,WeatherCatV1.01B143,2013-05-24 23:59:00,
2013-05-24 19:04:00,58.6,36.8,30.34,NNW,342,0.0,0.0,44,0.00,,,0.00,WeatherCatV1.01B143,2013-05-25 00:04:00,
2013-05-24 19:09:00,57.9,36.7,30.34,NNW,341,0.0,0.0,45,0.00,,,0.00,WeatherCatV1.01B143,2013-05-25 00:09:00,
2013-05-24 19:14:00,57.4,36.8,30.33,NW,322,0.0,0.0,46,0.00,,,0.00,WeatherCatV1.01B143,2013-05-25 00:14:00,
2013-05-24 19:19:00,57.3,37.2,30.34,NW,322,0.0,0.0,47,0.00,,,0.00,WeatherCatV1.01B143,2013-05-25 00:19:00,
2013-05-24 19:24:00,57.2,36.6,30.34,NNE,25,0.0,1.0,46,0.00,,,0.00,WeatherCatV1.01B143,2013-05-25 00:24:00,
2013-05-24 19:29:00,56.8,37.3,30.34,NNE,25,0.0,0.0,48,0.00,,,0.00,WeatherCatV1.01B143,2013-05-25 00:29:00,
2013-05-24 19:34:00,56.2,36.2,30.33,NNE,16,0.0,1.0,47,0.00,,,0.00,WeatherCatV1.01B143,2013-05-25 00:34:00,
2013-05-24 19:39:00,55.6,36.7,30.33,NNE,18,0.0,1.0,49,0.00,,,0.00,WeatherCatV1.01B143,2013-05-25 00:39:00,
2013-05-24 19:44:00,55.1,36.3,30.33,ENE,64,0.0,2.0,49,0.00,,,0.00,WeatherCatV1.01B143,2013-05-25 00:44:00,
2013-05-24 19:49:00,54.6,36.3,30.34,North,11,0.0,0.0,50,0.00,,,0.00,WeatherCatV1.01B143,2013-05-25 00:49:00,
2013-05-24 19:54:00,54.1,36.4,30.34,NNE,14,0.0,0.0,51,0.00,,,0.00,WeatherCatV1.01B143,2013-05-25 00:54:00,
2013-05-24 19:59:00,53.5,37.3,30.34,NNE,14,0.0,1.0,54,0.00,,,0.00,WeatherCatV1.01B143,2013-05-25 00:59:00,
2013-05-24 20:04:00,52.8,36.6,30.34,North,0,0.0,0.0,54,0.00,,,0.00,WeatherCatV1.01B143,2013-05-25 01:04:00,
2013-05-24 20:09:00,52.1,36.9,30.34,North,0,0.0,0.0,56,0.00,,,0.00,WeatherCatV1.01B143,2013-05-25 01:09:00,
2013-05-24 20:14:00,51.5,36.8,30.35,North,0,0.0,0.0,57,0.00,,,0.00,WeatherCatV1.01B143,2013-05-25 01:14:00,
2013-05-24 20:19:00,51.0,37.2,30.35,North,359,0.0,0.0,59,0.00,,,0.00,WeatherCatV1.01B143,2013-05-25 01:19:00,
2013-05-24 20:24:00,50.5,37.1,30.35,North,0,0.0,0.0,60,0.00,,,0.00,WeatherCatV1.01B143,2013-05-25 01:24:00,
2013-05-24 20:29:00,50.0,37.1,30.34,North,0,0.0,0.0,61,0.00,,,0.00,WeatherCatV1.01B143,2013-05-25 01:29:00,
2013-05-24 20:34:00,49.6,36.7,30.34,North,359,0.0,0.0,61,0.00,,,0.00,WeatherCatV1.01B143,2013-05-25 01:34:00,
2013-05-24 20:39:00,49.3,37.2,30.35,North,359,0.0,0.0,63,0.00,,,0.00,WeatherCatV1.01B143,2013-05-25 01:39:00,
2013-05-24 20:44:00,49.0,37.0,30.35,North,0,0.0,0.0,63,0.00,,,0.00,WeatherCatV1.01B143,2013-05-25 01:44:00,
2013-05-24 20:49:00,48.8,36.8,30.36,NE,49,0.0,2.0,63,0.00,,,0.00,WeatherCatV1.01B143,2013-05-25 01:49:00,
2013-05-24 20:54:00,48.6,37.0,30.36,NE,53,0.0,0.0,64,0.00,,,0.00,WeatherCatV1.01B143,2013-05-25 01:54:00,
2013-05-24 20:59:00,48.4,36.8,30.36,North,10,0.0,0.0,64,0.00,,,0.00,WeatherCatV1.01B143,2013-05-25 01:59:00,
2013-05-24 21:04:00,48.2,37.0,30.36,North,10,0.0,0.0,65,0.00,,,0.00,WeatherCatV1.01B143,2013-05-25 02:04:00,
2013-05-24 21:09:00,47.9,37.1,30.37,North,9,0.0,0.0,66,0.00,,,0.00,WeatherCatV1.01B143,2013-05-25 02:09:00,
2013-05-24 21:14:00,47.6,36.4,30.37,North,9,0.0,0.0,65,0.00,,,0.00,WeatherCatV1.01B143,2013-05-25 02:14:00,
2013-05-24 21:19:00,47.3,36.5,30.37,North,9,0.0,0.0,66,0.00,,,0.00,WeatherCatV1.01B143,2013-05-25 02:19:00,
2013-05-24 21:24:00,47.2,36.8,30.37,North,10,0.0,0.0,67,0.00,,,0.00,WeatherCatV1.01B143,2013-05-25 02:24:00,
2013-05-24 21:29:00,47.1,36.7,30.37,NE,53,0.0,1.0,67,0.00,,,0.00,WeatherCatV1.01B143,2013-05-25 02:29:00,
2013-05-24 21:34:00,46.8,36.8,30.38,NE,53,0.0,0.0,68,0.00,,,0.00,WeatherCatV1.01B143,2013-05-25 02:34:00,
2013-05-24 21:39:00,46.5,36.5,30.38,NE,53,0.0,0.0,68,0.00,,,0.00,WeatherCatV1.01B143,2013-05-25 02:39:00,
2013-05-24 21:44:00,46.2,36.6,30.38,NE,53,0.0,0.0,69,0.00,,,0.00,WeatherCatV1.01B143,2013-05-25 02:44:00,
2013-05-24 21:49:00,45.9,36.7,30.38,NE,53,0.0,0.0,70,0.00,,,0.00,WeatherCatV1.01B143,2013-05-25 02:49:00,
2013-05-24 21:54:00,45.6,36.7,30.38,NE,53,0.0,0.0,71,0.00,,,0.00,WeatherCatV1.01B143,2013-05-25 02:54:00,
2013-05-24 21:59:00,45.4,36.9,30.39,NE,53,0.0,0.0,72,0.00,,,0.00,WeatherCatV1.01B143,2013-05-25 02:59:00,
2013-05-24 22:04:00,45.2,36.7,30.39,NE,53,0.0,1.0,72,0.00,,,0.00,WeatherCatV1.01B143,2013-05-25 03:04:00,
2013-05-24 22:09:00,45.1,36.6,30.39,NE,53,0.0,0.0,72,0.00,,,0.00,WeatherCatV1.01B143,2013-05-25 03:09:00,
2013-05-24 22:14:00,44.9,36.4,30.39,NE,53,0.0,0.0,72,0.00,,,0.00,WeatherCatV1.01B143,2013-05-25 03:14:00,
2013-05-24 22:19:00,44.8,36.3,30.39,NE,53,0.0,0.0,72,0.00,,,0.00,WeatherCatV1.01B143,2013-05-25 03:19:00,
2013-05-24 22:24:00,44.7,36.6,30.39,NE,53,0.0,0.0,73,0.00,,,0.00,WeatherCatV1.01B143,2013-05-25 03:24:00,
2013-05-24 22:29:00,44.6,36.5,30.39,NE,53,0.0,0.0,73,0.00,,,0.00,WeatherCatV1.01B143,2013-05-25 03:29:00,
2013-05-24 22:34:00,44.4,36.3,30.39,NE,53,0.0,0.0,73,0.00,,,0.00,WeatherCatV1.01B143,2013-05-25 03:34:00,
2013-05-24 22:39:00,44.2,36.4,30.39,NNE,24,0.0,0.0,74,0.00,,,0.00,WeatherCatV1.01B143,2013-05-25 03:39:00,
2013-05-24 22:44:00,44.0,36.3,30.39,NNE,25,0.0,0.0,74,0.00,,,0.00,WeatherCatV1.01B143,2013-05-25 03:44:00,
2013-05-24 22:49:00,43.8,36.4,30.40,NNE,26,0.0,0.0,75,0.00,,,0.00,WeatherCatV1.01B143,2013-05-25 03:49:00,
2013-05-24 22:54:00,43.7,36.3,30.39,NNE,26,0.0,0.0,75,0.00,,,0.00,WeatherCatV1.01B143,2013-05-25 03:54:00,
2013-05-24 22:59:00,43.5,36.4,30.39,NNE,26,0.0,0.0,76,0.00,,,0.00,WeatherCatV1.01B143,2013-05-25 03:59:00,
2013-05-24 23:01:00,43.5,36.4,30.39,NNE,26,0.0,0.0,76,0.00,,,0.00,WeatherCatV1.01B143,2013-05-25 04:01:00,
2013-05-24 23:02:00,43.5,36.4,30.39,NNE,26,0.0,0.0,76,0.00,,,0.00,WeatherCatV1.01B143,2013-05-25 04:02:00,
2013-05-24 23:04:00,43.4,36.7,30.39,NNE,26,0.0,0.0,77,0.00,,,0.00,WeatherCatV1.01B143,2013-05-25 04:04:00,
2013-05-24 23:05:00,43.3,36.6,30.39,NNE,26,0.0,0.0,77,0.00,,,0.00,WeatherCatV1.01B143,2013-05-25 04:05:00,
2013-05-24 23:07:00,43.2,36.5,30.39,NNE,26,0.0,0.0,77,0.00,,,0.00,WeatherCatV1.01B143,2013-05-25 04:07:00,
2013-05-24 23:12:00,42.9,36.2,30.38,NNE,26,0.0,0.0,77,0.00,,,0.00,WeatherCatV1.01B143,2013-05-25 04:12:00,
2013-05-24 23:17:00,42.7,36.3,30.38,NNE,26,0.0,0.0,78,0.00,,,0.00,WeatherCatV1.01B143,2013-05-25 04:17:00,
2013-05-24 23:22:00,42.5,36.1,30.38,NNE,26,0.0,0.0,78,0.00,,,0.00,WeatherCatV1.01B143,2013-05-25 04:22:00,
2013-05-24 23:27:00,42.5,36.5,30.38,NNE,26,0.0,0.0,79,0.00,,,0.00,WeatherCatV1.01B143,2013-05-25 04:27:00,
2013-05-24 23:32:00,42.3,36.3,30.38,NNE,26,0.0,0.0,79,0.00,,,0.00,WeatherCatV1.01B143,2013-05-25 04:32:00,
2013-05-24 23:37:00,42.3,36.6,30.38,NNE,26,0.0,0.0,80,0.00,,,0.00,WeatherCatV1.01B143,2013-05-25 04:37:00,
2013-05-24 23:42:00,42.4,36.7,30.38,NNE,26,0.0,0.0,80,0.00,,,0.00,WeatherCatV1.01B143,2013-05-25 04:42:00,
2013-05-24 23:47:00,42.4,36.7,30.38,NNE,26,0.0,0.0,80,0.00,,,0.00,WeatherCatV1.01B143,2013-05-25 04:47:00,
2013-05-24 23:52:00,42.2,36.5,30.38,NNE,26,0.0,0.0,80,0.00,,,0.00,WeatherCatV1.01B143,2013-05-25 04:52:00,
2013-05-24 23:57:00,42.2,36.8,30.38,NNE,26,0.0,0.0,81,0.00,,,0.00,WeatherCatV1.01B143,2013-05-25 04:57:00,